Location: Haieshausen
(51.8387°N, 9.9720°E)
Time: 03:42:07
(UTC+00:00)

ADEOS II - Pass Details

Date: 14 July 2020
Orbit: 799 x 801 km, 98.5° (Epoch: 10 August)

Event Time Altitude Azimuth Distance (km) Brightness Sun altitude
Rises 01:15:49 0° 19° (NNE) 3,324 7.3 -12.7°
Reaches altitude 10° 01:18:17 10° 26° (NNE) 2,388 6.1 -12.5°
Maximum altitude 01:23:18 43° 98° (E) 1,119 3.0 -12.2°
Drops below altitude 10° 01:28:16 10° 169° (S) 2,370 4.1 -11.8°
Enters shadow 01:28:37 - 171° (S) 2,497 4.2 -11.8°
